Time,TemperatureF,DewpointF,PressureIn,WindDirection,WindDirectionDegrees,WindSpeedMPH,WindSpeedGustMPH,Humidity,HourlyPrecipIn,Conditions,Clouds,dailyrainin,SoftwareType,DateUTC
2013-01-14 00:00:00,51.7,48.9,29.75,SE,140,7.0,7.0,90,0.00,,,0.00,Wunderground v.1.15,2013-01-14 05:00:00,
2013-01-14 00:10:00,51.6,48.8,29.73,SE,138,7.0,7.0,90,0.00,,,0.00,Wunderground v.1.15,2013-01-14 05:10:00,
2013-01-14 00:20:00,51.5,48.7,29.74,SSE,161,6.0,6.0,90,0.00,,,0.00,Wunderground v.1.15,2013-01-14 05:20:00,
2013-01-14 00:30:00,51.5,48.7,29.73,SSE,150,6.0,6.0,90,0.00,,,0.00,Wunderground v.1.15,2013-01-14 05:30:00,
2013-01-14 00:40:00,51.7,48.9,29.76,South,183,4.0,4.0,90,0.00,,,0.00,Wunderground v.1.15,2013-01-14 05:40:00,
2013-01-14 00:50:00,51.6,48.8,29.75,SSE,151,4.0,18.0,90,0.00,,,0.00,Wunderground v.1.15,2013-01-14 05:50:00,
2013-01-14 01:00:00,51.8,49.0,29.75,SSE,148,6.0,18.0,90,0.00,,,0.00,Wunderground v.1.15,2013-01-14 06:00:00,
2013-01-14 01:10:00,51.9,48.8,29.75,SSE,157,6.0,18.0,89,0.00,,,0.00,Wunderground v.1.15,2013-01-14 06:10:00,
2013-01-14 01:20:00,52.1,49.0,29.76,SSE,165,7.0,7.0,89,0.00,,,0.00,Wunderground v.1.15,2013-01-14 06:20:00,
2013-01-14 01:30:00,52.2,48.8,29.75,SSE,159,7.0,18.0,88,0.00,,,0.00,Wunderground v.1.15,2013-01-14 06:30:00,
2013-01-14 01:40:00,52.3,48.9,29.75,South,177,7.0,7.0,88,0.00,,,0.00,Wunderground v.1.15,2013-01-14 06:40:00,
2013-01-14 01:50:00,52.2,48.8,29.76,South,173,6.0,18.0,88,0.00,,,0.00,Wunderground v.1.15,2013-01-14 06:50:00,
2013-01-14 02:00:00,52.4,48.9,29.76,SSE,165,6.0,6.0,88,0.00,,,0.00,Wunderground v.1.15,2013-01-14 07:00:00,
2013-01-14 02:10:00,52.6,49.1,29.76,SSE,157,5.0,18.0,88,0.00,,,0.00,Wunderground v.1.15,2013-01-14 07:10:00,
2013-01-14 02:20:00,53.1,49.3,29.77,SSE,167,6.0,18.0,87,0.00,,,0.00,Wunderground v.1.15,2013-01-14 07:20:00,
2013-01-14 02:30:00,54.0,49.9,29.84,WNW,283,7.0,7.0,86,0.00,,,0.00,Wunderground v.1.15,2013-01-14 07:30:00,
2013-01-14 02:39:00,53.0,48.0,29.84,WSW,242,10.0,18.0,83,0.00,,,0.00,Wunderground v.1.15,2013-01-14 07:39:00,
2013-01-14 02:50:00,51.5,46.8,29.86,SW,231,8.0,18.0,84,0.00,,,0.00,Wunderground v.1.15,2013-01-14 07:50:00,
2013-01-14 02:59:00,50.0,46.3,29.87,NNW,346,8.0,18.0,87,0.00,,,0.00,Wunderground v.1.15,2013-01-14 07:59:00,
2013-01-14 03:10:00,48.4,44.4,29.90,West,279,10.0,10.0,86,0.00,,,0.00,Wunderground v.1.15,2013-01-14 08:10:00,
2013-01-14 03:20:00,47.2,43.2,29.90,West,265,11.0,18.0,86,0.00,,,0.00,Wunderground v.1.15,2013-01-14 08:20:00,
2013-01-14 03:30:00,46.7,43.0,29.92,SW,221,9.0,18.0,87,0.00,,,0.00,Wunderground v.1.15,2013-01-14 08:30:00,
2013-01-14 03:40:00,46.0,41.7,29.92,NW,311,8.0,8.0,85,0.00,,,0.00,Wunderground v.1.15,2013-01-14 08:40:00,
2013-01-14 03:50:00,44.7,41.1,29.95,NNW,342,10.0,18.0,87,0.00,,,0.00,Wunderground v.1.15,2013-01-14 08:50:00,
2013-01-14 04:00:00,44.1,40.8,29.95,WNW,293,6.0,18.0,88,0.00,,,0.00,Wunderground v.1.15,2013-01-14 09:00:00,
2013-01-14 04:10:00,43.9,40.9,29.94,West,269,4.0,18.0,89,0.00,,,0.00,Wunderground v.1.15,2013-01-14 09:10:00,
2013-01-14 04:20:00,43.8,40.8,29.93,WSW,252,3.0,3.0,89,0.00,,,0.00,Wunderground v.1.15,2013-01-14 09:20:00,
2013-01-14 04:30:00,43.7,40.7,29.95,NNW,334,3.0,18.0,89,0.00,,,0.00,Wunderground v.1.15,2013-01-14 09:30:00,
2013-01-14 04:40:00,43.7,40.7,29.96,WNW,302,3.0,18.0,89,0.00,,,0.00,Wunderground v.1.15,2013-01-14 09:40:00,
2013-01-14 04:50:00,43.8,40.2,29.97,SW,221,6.0,18.0,87,0.00,,,0.00,Wunderground v.1.15,2013-01-14 09:50:00,
2013-01-14 05:00:00,43.6,40.0,29.97,West,276,7.0,18.0,87,0.00,,,0.00,Wunderground v.1.15,2013-01-14 10:00:00,
2013-01-14 05:10:00,43.5,39.9,29.97,WNW,292,6.0,18.0,87,0.00,,,0.00,Wunderground v.1.15,2013-01-14 10:10:00,
2013-01-14 05:20:00,43.4,39.5,29.97,WSW,258,6.0,6.0,86,0.00,,,0.00,Wunderground v.1.15,2013-01-14 10:20:00,
2013-01-14 05:30:00,43.3,39.4,29.99,WSW,242,6.0,18.0,86,0.00,,,0.00,Wunderground v.1.15,2013-01-14 10:30:00,
2013-01-14 05:39:00,43.2,39.3,29.99,WSW,240,6.0,18.0,86,0.00,,,0.00,Wunderground v.1.15,2013-01-14 10:39:00,
2013-01-14 05:49:00,43.1,38.9,30.00,SSW,210,8.0,8.0,85,0.00,,,0.00,Wunderground v.1.15,2013-01-14 10:49:00,
2013-01-14 06:00:00,42.8,38.0,30.01,WSW,254,8.0,8.0,83,0.00,,,0.00,Wunderground v.1.15,2013-01-14 11:00:00,
2013-01-14 06:10:00,42.4,37.3,30.02,West,260,8.0,10.0,82,0.00,,,0.00,Wunderground v.1.15,2013-01-14 11:10:00,
2013-01-14 06:20:00,42.0,36.6,30.04,West,269,10.0,12.0,81,0.00,,,0.00,Wunderground v.1.15,2013-01-14 11:20:00,
2013-01-14 06:29:00,41.6,36.2,30.05,West,263,9.0,10.0,81,0.00,,,0.00,Wunderground v.1.15,2013-01-14 11:29:00,
2013-01-14 06:40:00,41.4,36.3,30.06,West,277,8.0,16.0,82,0.00,,,0.00,Wunderground v.1.15,2013-01-14 11:40:00,
2013-01-14 06:50:00,41.2,36.4,30.07,WSW,254,9.0,16.0,83,0.00,,,0.00,Wunderground v.1.15,2013-01-14 11:50:00,
2013-01-14 06:59:00,41.1,36.0,30.08,SW,230,8.0,16.0,82,0.00,,,0.00,Wunderground v.1.15,2013-01-14 11:59:00,
2013-01-14 07:10:00,40.8,36.0,30.09,WSW,246,9.0,9.0,83,0.00,,,0.00,Wunderground v.1.15,2013-01-14 12:10:00,
2013-01-14 07:20:00,40.6,35.2,30.09,WSW,250,8.0,16.0,81,0.00,,,0.00,Wunderground v.1.15,2013-01-14 12:20:00,
2013-01-14 07:30:00,40.5,34.8,30.10,WSW,241,9.0,9.0,80,0.00,,,0.00,Wunderground v.1.15,2013-01-14 12:30:00,
2013-01-14 07:40:00,40.2,34.2,30.11,West,265,7.0,16.0,79,0.00,,,0.00,Wunderground v.1.15,2013-01-14 12:40:00,
2013-01-14 07:50:00,40.0,34.0,30.12,WNW,292,8.0,16.0,79,0.00,,,0.00,Wunderground v.1.15,2013-01-14 12:50:00,
2013-01-14 08:00:00,39.5,33.5,30.12,West,266,9.0,16.0,79,0.00,,,0.00,Wunderground v.1.15,2013-01-14 13:00:00,
2013-01-14 08:10:00,39.2,32.9,30.13,West,278,9.0,16.0,78,0.00,,,0.00,Wunderground v.1.15,2013-01-14 13:10:00,
2013-01-14 08:20:00,38.9,32.0,30.15,West,279,9.0,9.0,76,0.00,,,0.00,Wunderground v.1.15,2013-01-14 13:20:00,
2013-01-14 08:30:00,38.9,32.3,30.15,SW,221,9.0,9.0,77,0.00,,,0.00,Wunderground v.1.15,2013-01-14 13:30:00,
2013-01-14 08:40:00,38.8,32.2,30.16,WSW,250,7.0,7.0,77,0.00,,,0.00,Wunderground v.1.15,2013-01-14 13:40:00,
2013-01-14 08:50:00,38.8,32.5,30.17,West,266,6.0,16.0,78,0.00,,,0.00,Wunderground v.1.15,2013-01-14 13:50:00,
2013-01-14 09:00:00,38.7,32.4,30.18,West,277,5.0,5.0,78,0.00,,,0.00,Wunderground v.1.15,2013-01-14 14:00:00,
2013-01-14 09:10:00,38.4,31.5,30.18,West,279,6.0,16.0,76,0.00,,,0.00,Wunderground v.1.15,2013-01-14 14:10:00,
2013-01-14 09:20:00,38.2,31.0,30.19,West,265,7.0,7.0,75,0.00,,,0.00,Wunderground v.1.15,2013-01-14 14:20:00,
2013-01-14 09:30:00,38.1,30.9,30.20,WNW,299,5.0,5.0,75,0.00,,,0.00,Wunderground v.1.15,2013-01-14 14:30:00,
2013-01-14 09:40:00,37.9,30.4,30.21,North,360,6.0,6.0,74,0.00,,,0.00,Wunderground v.1.15,2013-01-14 14:40:00,
2013-01-14 09:50:00,37.5,29.6,30.22,West,261,7.0,16.0,73,0.00,,,0.00,Wunderground v.1.15,2013-01-14 14:50:00,
2013-01-14 10:00:00,37.2,29.3,30.22,SW,219,8.0,8.0,73,0.00,,,0.00,Wunderground v.1.15,2013-01-14 15:00:00,
2013-01-14 10:10:00,37.1,28.9,30.23,NNW,332,7.0,16.0,72,0.00,,,0.00,Wunderground v.1.15,2013-01-14 15:10:00,
2013-01-14 10:20:00,36.9,29.4,30.24,SW,232,7.0,7.0,74,0.00,,,0.00,Wunderground v.1.15,2013-01-14 15:20:00,
2013-01-14 10:30:00,36.5,28.0,30.24,West,259,8.0,8.0,71,0.00,,,0.00,Wunderground v.1.15,2013-01-14 15:30:00,
2013-01-14 10:40:00,36.3,27.1,30.25,NNW,336,7.0,16.0,69,0.00,,,0.00,Wunderground v.1.15,2013-01-14 15:40:00,
2013-01-14 10:49:00,36.7,27.1,30.25,WNW,295,7.0,16.0,68,0.00,,,0.00,Wunderground v.1.15,2013-01-14 15:49:00,
2013-01-14 10:59:00,36.7,27.5,30.26,WNW,285,7.0,7.0,69,0.00,,,0.00,Wunderground v.1.15,2013-01-14 15:59:00,
2013-01-14 11:09:00,36.2,27.0,30.26,NW,311,7.0,16.0,69,0.00,,,0.00,Wunderground v.1.15,2013-01-14 16:09:00,
2013-01-14 11:19:00,35.6,27.1,30.26,NW,312,7.0,7.0,71,0.00,,,0.00,Wunderground v.1.15,2013-01-14 16:19:00,
2013-01-14 11:29:00,35.3,26.5,30.27,West,264,6.0,6.0,70,0.00,,,0.00,Wunderground v.1.15,2013-01-14 16:29:00,
2013-01-14 11:40:00,35.0,26.2,30.27,WSW,254,7.0,16.0,70,0.00,,,0.00,Wunderground v.1.15,2013-01-14 16:40:00,
2013-01-14 11:49:00,34.7,25.9,30.27,West,271,7.0,16.0,70,0.00,,,0.00,Wunderground v.1.15,2013-01-14 16:49:00,
2013-01-14 12:00:00,34.6,25.5,30.27,West,280,7.0,16.0,69,0.00,,,0.00,Wunderground v.1.15,2013-01-14 17:00:00,
2013-01-14 12:10:00,34.6,25.8,30.27,West,273,6.0,6.0,70,0.00,,,0.00,Wunderground v.1.15,2013-01-14 17:10:00,
2013-01-14 12:19:00,34.3,25.2,30.27,WSW,241,6.0,16.0,69,0.00,,,0.00,Wunderground v.1.15,2013-01-14 17:19:00,
2013-01-14 12:30:00,34.3,25.9,30.27,SW,226,6.0,16.0,71,0.00,,,0.00,Wunderground v.1.15,2013-01-14 17:30:00,
2013-01-14 12:39:00,34.8,25.7,30.27,WSW,254,7.0,7.0,69,0.00,,,0.00,Wunderground v.1.15,2013-01-14 17:39:00,
2013-01-14 12:50:00,34.6,25.5,30.26,West,259,6.0,6.0,69,0.00,,,0.00,Wunderground v.1.15,2013-01-14 17:50:00,
2013-01-14 13:00:00,34.4,25.6,30.26,West,275,5.0,16.0,70,0.00,,,0.00,Wunderground v.1.15,2013-01-14 18:00:00,
2013-01-14 13:09:00,34.3,25.5,30.27,North,360,5.0,16.0,70,0.00,,,0.00,Wunderground v.1.15,2013-01-14 18:09:00,
2013-01-14 13:20:00,34.3,25.2,30.27,SW,233,4.0,4.0,69,0.00,,,0.00,Wunderground v.1.15,2013-01-14 18:20:00,
2013-01-14 13:30:00,35.1,25.6,30.27,West,278,4.0,16.0,68,0.00,,,0.00,Wunderground v.1.15,2013-01-14 18:30:00,
2013-01-14 13:40:00,35.1,24.5,30.27,WSW,256,4.0,16.0,65,0.00,,,0.00,Wunderground v.1.15,2013-01-14 18:40:00,
2013-01-14 13:50:00,34.9,24.3,30.28,WNW,298,5.0,5.0,65,0.00,,,0.00,Wunderground v.1.15,2013-01-14 18:50:00,
2013-01-14 14:00:00,34.9,24.7,30.28,West,263,5.0,16.0,66,0.00,,,0.00,Wunderground v.1.15,2013-01-14 19:00:00,
2013-01-14 14:10:00,34.6,24.4,30.28,West,262,5.0,5.0,66,0.00,,,0.00,Wunderground v.1.15,2013-01-14 19:10:00,
2013-01-14 14:20:00,34.6,25.1,30.28,West,271,5.0,16.0,68,0.00,,,0.00,Wunderground v.1.15,2013-01-14 19:20:00,
2013-01-14 14:30:00,34.5,24.3,30.28,NW,313,5.0,5.0,66,0.00,,,0.00,Wunderground v.1.15,2013-01-14 19:30:00,
2013-01-14 14:40:00,34.6,24.4,30.29,West,275,5.0,16.0,66,0.00,,,0.00,Wunderground v.1.15,2013-01-14 19:40:00,
2013-01-14 14:50:00,34.4,24.6,30.29,WSW,251,5.0,16.0,67,0.00,,,0.00,Wunderground v.1.15,2013-01-14 19:50:00,
2013-01-14 15:00:00,34.2,25.1,30.28,WNW,300,4.0,4.0,69,0.00,,,0.00,Wunderground v.1.15,2013-01-14 20:00:00,
2013-01-14 15:10:00,34.1,24.6,30.28,SW,226,5.0,5.0,68,0.00,,,0.00,Wunderground v.1.15,2013-01-14 20:10:00,
2013-01-14 15:20:00,33.9,24.4,30.28,WSW,252,5.0,16.0,68,0.00,,,0.00,Wunderground v.1.15,2013-01-14 20:20:00,
2013-01-14 15:30:00,33.8,23.6,30.28,WSW,248,4.0,16.0,66,0.00,,,0.00,Wunderground v.1.15,2013-01-14 20:30:00,
2013-01-14 15:40:00,34.1,23.2,30.29,West,269,5.0,16.0,64,0.00,,,0.00,Wunderground v.1.15,2013-01-14 20:40:00,
2013-01-14 15:50:00,33.9,23.0,30.27,NW,324,3.0,3.0,64,0.00,,,0.00,Wunderground v.1.15,2013-01-14 20:50:00,
2013-01-14 16:00:00,33.8,23.6,30.29,West,263,3.0,16.0,66,0.00,,,0.00,Wunderground v.1.15,2013-01-14 21:00:00,
2013-01-14 16:10:00,33.7,22.8,30.30,West,273,5.0,16.0,64,0.00,,,0.00,Wunderground v.1.15,2013-01-14 21:10:00,
2013-01-14 16:20:00,33.5,22.2,30.30,WSW,242,4.0,4.0,63,0.00,,,0.00,Wunderground v.1.15,2013-01-14 21:20:00,
2013-01-14 16:30:00,33.5,23.0,30.31,WNW,300,3.0,16.0,65,0.00,,,0.00,Wunderground v.1.15,2013-01-14 21:30:00,
2013-01-14 16:40:00,33.3,24.9,30.31,NW,315,6.0,6.0,71,0.00,,,0.00,Wunderground v.1.15,2013-01-14 21:40:00,
2013-01-14 16:50:00,33.0,25.0,30.31,NNW,328,6.0,6.0,72,0.00,,,0.00,Wunderground v.1.15,2013-01-14 21:50:00,
2013-01-14 17:00:00,32.7,25.0,30.32,NW,311,4.0,16.0,73,0.00,,,0.00,Wunderground v.1.15,2013-01-14 22:00:00,
2013-01-14 17:10:00,32.6,24.6,30.32,NW,304,4.0,4.0,72,0.00,,,0.00,Wunderground v.1.15,2013-01-14 22:10:00,
2013-01-14 17:20:00,32.5,24.8,30.32,NNW,330,4.0,16.0,73,0.00,,,0.00,Wunderground v.1.15,2013-01-14 22:20:00,
2013-01-14 17:30:00,32.4,24.4,30.34,NW,323,4.0,4.0,72,0.00,,,0.00,Wunderground v.1.15,2013-01-14 22:30:00,
2013-01-14 17:40:00,32.3,24.3,30.35,West,262,2.0,16.0,72,0.00,,,0.00,Wunderground v.1.15,2013-01-14 22:40:00,
2013-01-14 17:49:00,32.3,24.3,30.35,WNW,298,2.0,16.0,72,0.00,,,0.00,Wunderground v.1.15,2013-01-14 22:49:00,
2013-01-14 17:59:00,32.2,24.5,30.35,NW,324,3.0,16.0,73,0.00,,,0.00,Wunderground v.1.15,2013-01-14 22:59:00,
2013-01-14 18:09:00,32.1,24.4,30.35,NNW,327,4.0,4.0,73,0.00,,,0.00,Wunderground v.1.15,2013-01-14 23:09:00,
2013-01-14 18:19:00,32.0,24.6,30.33,West,270,3.0,16.0,74,0.00,,,0.00,Wunderground v.1.15,2013-01-14 23:19:00,
2013-01-14 18:29:00,31.9,24.2,30.33,NW,320,4.0,4.0,73,0.00,,,0.00,Wunderground v.1.15,2013-01-14 23:29:00,
2013-01-14 18:40:00,31.8,24.5,30.35,NW,310,4.0,16.0,74,0.00,,,0.00,Wunderground v.1.15,2013-01-14 23:40:00,
2013-01-14 18:49:00,31.8,24.8,30.36,NW,326,3.0,16.0,75,0.00,,,0.00,Wunderground v.1.15,2013-01-14 23:49:00,
2013-01-14 19:00:00,31.7,24.0,30.36,NW,319,4.0,4.0,73,0.00,,,0.00,Wunderground v.1.15,2013-01-15 00:00:00,
2013-01-14 19:10:00,31.7,24.7,30.37,SW,234,3.0,16.0,75,0.00,,,0.00,Wunderground v.1.15,2013-01-15 00:10:00,
2013-01-14 19:20:00,31.6,24.3,30.38,NNW,331,4.0,4.0,74,0.00,,,0.00,Wunderground v.1.15,2013-01-15 00:20:00,
2013-01-14 19:30:00,31.5,24.2,30.38,NW,309,3.0,3.0,74,0.00,,,0.00,Wunderground v.1.15,2013-01-15 00:30:00,
2013-01-14 19:40:00,31.4,24.1,30.36,WSW,255,3.0,16.0,74,0.00,,,0.00,Wunderground v.1.15,2013-01-15 00:40:00,
2013-01-14 19:50:00,31.3,23.6,30.34,NNW,335,4.0,4.0,73,0.00,,,0.00,Wunderground v.1.15,2013-01-15 00:50:00,
2013-01-14 20:00:00,31.2,23.9,30.34,West,280,3.0,16.0,74,0.00,,,0.00,Wunderground v.1.15,2013-01-15 01:00:00,
2013-01-14 20:10:00,31.1,23.1,30.33,WSW,255,4.0,4.0,72,0.00,,,0.00,Wunderground v.1.15,2013-01-15 01:10:00,
2013-01-14 20:20:00,31.1,23.1,30.33,WNW,288,3.0,16.0,72,0.00,,,0.00,Wunderground v.1.15,2013-01-15 01:20:00,
2013-01-14 20:30:00,31.0,22.4,30.34,WSW,239,4.0,4.0,70,0.00,,,0.00,Wunderground v.1.15,2013-01-15 01:30:00,
2013-01-14 20:40:00,31.0,22.4,30.34,WSW,247,4.0,16.0,70,0.00,,,0.00,Wunderground v.1.15,2013-01-15 01:40:00,
2013-01-14 20:50:00,30.9,22.6,30.35,WSW,257,3.0,16.0,71,0.00,,,0.00,Wunderground v.1.15,2013-01-15 01:50:00,
2013-01-14 21:00:00,30.8,22.8,30.34,West,269,3.0,3.0,72,0.00,,,0.00,Wunderground v.1.15,2013-01-15 02:00:00,
2013-01-14 21:10:00,30.8,22.5,30.35,West,267,4.0,4.0,71,0.00,,,0.00,Wunderground v.1.15,2013-01-15 02:10:00,
2013-01-14 21:20:00,30.7,22.4,30.36,WSW,257,4.0,4.0,71,0.00,,,0.00,Wunderground v.1.15,2013-01-15 02:20:00,
2013-01-14 21:30:00,30.6,22.3,30.37,WSW,244,4.0,4.0,71,0.00,,,0.00,Wunderground v.1.15,2013-01-15 02:30:00,
2013-01-14 21:40:00,30.6,22.6,30.37,WSW,243,4.0,16.0,72,0.00,,,0.00,Wunderground v.1.15,2013-01-15 02:40:00,
2013-01-14 21:49:00,30.5,22.9,30.37,WSW,257,4.0,4.0,73,0.00,,,0.00,Wunderground v.1.15,2013-01-15 02:49:00,
2013-01-14 22:00:00,30.5,22.9,30.37,WSW,240,3.0,16.0,73,0.00,,,0.00,Wunderground v.1.15,2013-01-15 03:00:00,
2013-01-14 22:09:00,30.4,22.8,30.36,West,270,3.0,16.0,73,0.00,,,0.00,Wunderground v.1.15,2013-01-15 03:09:00,
2013-01-14 22:20:00,30.4,22.8,30.35,WSW,246,4.0,16.0,73,0.00,,,0.00,Wunderground v.1.15,2013-01-15 03:20:00,
2013-01-14 22:30:00,30.4,22.8,30.36,WSW,252,4.0,4.0,73,0.00,,,0.00,Wunderground v.1.15,2013-01-15 03:30:00,
2013-01-14 22:40:00,30.4,22.8,30.37,West,275,3.0,16.0,73,0.00,,,0.00,Wunderground v.1.15,2013-01-15 03:40:00,
2013-01-14 22:50:00,30.3,22.7,30.36,West,266,3.0,16.0,73,0.00,,,0.00,Wunderground v.1.15,2013-01-15 03:50:00,
2013-01-14 23:00:00,30.3,22.7,30.35,NW,305,3.0,16.0,73,0.00,,,0.00,Wunderground v.1.15,2013-01-15 04:00:00,
2013-01-14 23:10:00,30.2,22.3,30.35,NW,309,3.0,16.0,72,0.00,,,0.00,Wunderground v.1.15,2013-01-15 04:10:00,
2013-01-14 23:20:00,30.2,22.3,30.34,WSW,244,3.0,3.0,72,0.00,,,0.00,Wunderground v.1.15,2013-01-15 04:20:00,
2013-01-14 23:30:00,30.2,21.9,30.34,WSW,244,3.0,16.0,71,0.00,,,0.00,Wunderground v.1.15,2013-01-15 04:30:00,
2013-01-14 23:40:00,30.1,22.2,30.33,West,281,2.0,2.0,72,0.00,,,0.00,Wunderground v.1.15,2013-01-15 04:40:00,
2013-01-14 23:50:00,30.1,21.8,30.33,West,259,2.0,16.0,71,0.00,,,0.00,Wunderground v.1.15,2013-01-15 04:50:00,